NOAA 16 DEB, 41071

Orbit data source: Space-Track

NOAA 16 DEB, 41071 is space debris in SSO originally from a launch on Thu, 21 Sep 2000 UTC launched from the Air Force Western Test Range (AFWTR). Debris objects in space refer to the collection of defunct objects orbiting the Earth. Examples of debris include non-operational satellites, rocket bodies, and fragments generated from explosions, collisions, or faulty payload assembly.

Loading next visibility...
Identifier
41071, 2000-055AE
Orbit
SSO
Last TLE update
12 hours ago
Origin
Manufacturer
Unknown
Mission
Spacecraft
Bus & Motor
Unknown
Mass
Unknown
Launch date (UTC)
2000-09-21 (25 years ago)
Launch vehicle
Unknown
Launch site
Air Force Western Test Range (AFWTR)
Object type
Payload
Rocket body
Debris
Shape & HBR
Unknown
Radar Cross Section
Small (<0.1 m²)

Expand to show TLE details & history

TLE from 12 hours ago
0 NOAA 16 DEB
1 41071U 00055AE  25167.26846380  .00002636  00000-0  11066-2 0  9994
2 41071  98.8139 266.9987 0008217 346.2015  13.8939 14.26765737493646
Epoch: 2025-06-16T06:26Z
TLE epoch observation values (Epoch: 2025-06-16T06:26:35.272Z)
Latitude
-0.00002°
Longitude
-94.42991°
Altitude
799.754 km
Speed
7.457 km/s
True Right ascension
17h 47m 59s
True Declination
0° 00' 00"
Sunlit
Object was in full shadow at epoch
Visualization orbit readout
Latitude
62.77806°
Longitude
-111.37025°
Altitude
812.197 km
Speed
7.454 km/s
Apparent Right ascension
16h 59m 14s
Apparent Declination
15° 42' 41"
Sunlit
Object is in daylight
Visualization observer readout
Local Sidereal Time
05:12:01
Azimuth
3.725° NNE
Elevation
-34.293°
Doppler factor
1
Orbital elements
Apogee altitude
805.615 km
Perigee altitude
793.819 km
Semi-major axis
7,177.854 km
Eccentricity
0.00082
Inclination
98.8139°
RAAN
266.9987°
Arg. of periapsis
346.2015°
True anomaly
Unknown
Mean anomaly
13.8939°
Eccentric anomaly
Unknown
Mean motion
3.56904 °/min
Orbital period
100.87 mins
BSTAR
0.0011066
Loading maneuver chart data...
Loading SW <> Apogee altitude chart data...
Loading historical data...
Loading historical data...
Loading historical data...
Loading historical data...
Loading historical data...
Loading historical data...
Loading historical data...

NOAA 16 DEB Visibility forecast

Observer location: undefined°, undefined°

Span
Click to sort rows by Start time (UTC) header in descending order
Start Az.
Max El. time (UTC)
Max El. Az.
Max El.
End time (UTC)
End Az.
9 mins2025-06-16 18:48:23.499Z33.468° NE2025-06-16 18:53:23.499Z105.373° ESE28.705°2025-06-16 18:57:23.499Z159.235° S
7 mins2025-06-16 20:29:23.499Z343.199° N2025-06-16 20:32:23.499Z298.232° NW26.265°2025-06-16 20:36:23.499Z239.03° WSW
8 mins2025-06-17 06:08:23.499Z140° SSE2025-06-17 06:12:23.499Z59.695° ENE37.28°2025-06-17 06:16:23.499Z359.715° N
5 mins2025-06-17 07:50:23.499Z242.903° WSW2025-06-17 07:52:23.499Z271.822° WNW18.016°2025-06-17 07:55:23.499Z308.82° NW
6 mins2025-06-17 18:24:23.499Z58.688° ENE2025-06-17 18:27:23.499Z99.682° ESE18.196°2025-06-17 18:30:23.499Z136.037° SSE
|